Weather History for Rayong, Thailand

Change the Weather History Date:

Thursday, November 15, 2012

  Actual Average Record
Temperature  
Mean Temperature 83 °F -  
Max Temperature 93 °F 88 °F 93 °F (1999)
Min Temperature 73 °F 72 °F 69 °F (2001)
Cooling Degree Days 18    
Growing Degree Days 33 (Base 50)    
Moisture  
Dew Point 71 °F    
Average Humidity 70    
Maximum Humidity 89    
Minimum Humidity 43    
Precipitation  
Precipitation 0.00 in 0.08 in - ()
Sea Level Pressure  
Sea Level Pressure 29.82 in    
Wind  
Wind Speed 2 mph ()    
Max Wind Speed 7 mph    
Max Gust Speed -    
Visibility 4.5 miles    
Events      
Averages and records for this station are not official NWS values.
T = Trace of Precipitation, MM = Missing Value Source: Averaged Metar Reports

Daily Weather History Graph

Daily Weather History Graph

Search for Another Location

Airport:

Trip Planner

Search our weather history database for the weather conditions in past years. The results will help you decide how hot, cold, wet, or windy it might be!

Date:

Astronomy

Nov. 15, 2012 Rise Set
Actual Time 6:14 AM ICT 5:46 PM ICT
Civil Twilight 5:51 AM ICT 6:09 PM ICT
Nautical Twilight 5:26 AM ICT 6:34 PM ICT
Astronomical Twilight 5:00 AM ICT 7:00 PM ICT
Moon 7:25 AM ICT (11/15) 7:14 PM ICT (11/15)
Length of Visible Light 12h 17m
Length of Day
11h 32m
New Moon, 3% of the Moon is Illuminated
Nov 15
New Moon
Nov 20
First Quarter
Nov 28
Full
Dec 6
Last Quarter
Dec 13
New

Hourly Weather History & Observations

Time (ICT) Temp. Heat Index Dew Point Humidity Pressure Visibility Wind Dir Wind Speed Gust Speed Precip Events Conditions
12:00 AM 77.0 °F - 71.6 °F 83% 29.83 in 4.3 mi Calm Calm - N/A   Mostly Cloudy
3:30 AM 75.2 °F - 69.8 °F 83% 29.77 in 4.3 mi Calm Calm - N/A   Mostly Cloudy
4:00 AM 75.2 °F - 69.8 °F 83% 29.77 in 4.3 mi Calm Calm - N/A   Mostly Cloudy
4:30 AM 73.4 °F - 68.0 °F 83% 29.77 in 4.3 mi Calm Calm - N/A   Mostly Cloudy
5:00 AM 73.4 °F - 68.0 °F 83% 29.80 in 4.3 mi Calm Calm - N/A   Mostly Cloudy
5:30 AM 73.4 °F - 66.2 °F 78% 29.80 in 4.3 mi Calm Calm - N/A   Mostly Cloudy
6:00 AM 73.4 °F - 66.2 °F 78% 29.80 in 4.3 mi Calm Calm - N/A   Mostly Cloudy
6:30 AM 73.4 °F - 66.2 °F 78% 29.80 in 4.3 mi Calm Calm - N/A   Mostly Cloudy
7:00 AM 75.2 °F - 66.2 °F 73% 29.83 in 5.0 mi Calm Calm - N/A   Mostly Cloudy
7:30 AM 75.2 °F - 68.0 °F 78% 29.83 in 5.0 mi Calm Calm - N/A   Mostly Cloudy
8:00 AM 77.0 °F - 68.0 °F 74% 29.86 in 5.0 mi Calm Calm - N/A   Mostly Cloudy
8:30 AM 80.6 °F 83.9 °F 69.8 °F 70% 29.86 in 5.0 mi NE 3.5 mph - N/A   Mostly Cloudy
9:00 AM 82.4 °F 87.2 °F 71.6 °F 70% 29.86 in 5.0 mi NE 3.5 mph - N/A   Mostly Cloudy
9:30 AM 84.2 °F 90.9 °F 73.4 °F 70% 29.86 in 5.0 mi North 3.5 mph - N/A   Mostly Cloudy
10:00 AM 86.0 °F 89.4 °F 68.0 °F 55% 29.86 in 5.6 mi NNE 4.6 mph - N/A   Mostly Cloudy
10:30 AM 87.8 °F 93.8 °F 71.6 °F 58% 29.86 in 5.6 mi NE 6.9 mph - N/A   Mostly Cloudy
11:00 AM 89.6 °F 96.2 °F 71.6 °F 55% 29.86 in 5.6 mi NE 6.9 mph - N/A   Mostly Cloudy
11:30 AM 89.6 °F 94.7 °F 69.8 °F 52% 29.86 in 5.6 mi ENE 6.9 mph - N/A   Mostly Cloudy
12:00 PM 93.2 °F 100.5 °F 71.6 °F 49% 29.83 in 5.6 mi NNE 6.9 mph - N/A   Mostly Cloudy
12:30 PM 91.4 °F 98.4 °F 71.6 °F 52% 29.83 in 5.6 mi NNE 6.9 mph - N/A   Mostly Cloudy
1:00 PM 91.4 °F 94.0 °F 66.2 °F 43% 29.80 in 5.6 mi NNE 6.9 mph - N/A   Mostly Cloudy
1:30 PM 91.4 °F 94.0 °F 66.2 °F 43% 29.80 in 5.6 mi East 3.5 mph - N/A   Mostly Cloudy
2:00 PM 87.8 °F 95.6 °F 73.4 °F 62% 29.77 in 5.6 mi SSW 3.5 mph - N/A   Mostly Cloudy
2:30 PM 87.8 °F 93.8 °F 71.6 °F 58% 29.77 in 5.6 mi WSW 4.6 mph - N/A   Mostly Cloudy
3:00 PM 87.8 °F 97.6 °F 75.2 °F 66% 29.77 in 5.6 mi NNW 6.9 mph - N/A   Mostly Cloudy
3:30 PM 89.6 °F 98.2 °F 73.4 °F 59% 29.77 in 5.0 mi NNW 6.9 mph - N/A   Mostly Cloudy
4:00 PM 89.6 °F 96.2 °F 71.6 °F 55% 29.77 in 4.3 mi North 4.6 mph - N/A   Mostly Cloudy
4:30 PM 87.8 °F 93.8 °F 71.6 °F 58% 29.77 in 3.7 mi NW 6.9 mph - N/A   Mostly Cloudy
5:00 PM 87.8 °F 93.8 °F 71.6 °F 58% 29.77 in 3.7 mi Calm Calm - N/A   Mostly Cloudy
5:30 PM 86.0 °F 93.4 °F 73.4 °F 66% 29.77 in 3.7 mi Calm Calm - N/A   Mostly Cloudy
6:00 PM 84.2 °F 90.9 °F 73.4 °F 70% 29.77 in 3.7 mi West 4.6 mph - N/A   Mostly Cloudy
6:30 PM 84.2 °F 90.9 °F 73.4 °F 70% 29.80 in 3.7 mi Calm Calm - N/A   Mostly Cloudy
7:00 PM 84.2 °F 90.9 °F 73.4 °F 70% 29.80 in 3.7 mi Calm Calm - N/A   Mostly Cloudy
7:30 PM 80.6 °F 85.4 °F 73.4 °F 79% 29.83 in 3.7 mi Calm Calm - N/A   Mostly Cloudy
8:00 PM 80.6 °F 85.4 °F 73.4 °F 79% 29.83 in 3.7 mi Calm Calm - N/A   Mostly Cloudy
8:30 PM 80.6 °F 85.4 °F 73.4 °F 79% 29.83 in 3.7 mi Calm Calm - N/A   Mostly Cloudy
9:00 PM 80.6 °F 86.2 °F 75.2 °F 84% 29.86 in 3.7 mi Calm Calm - N/A   Mostly Cloudy
9:30 PM 78.8 °F - 75.2 °F 89% 29.86 in 3.7 mi NE 3.5 mph - N/A   Mostly Cloudy
10:00 PM 78.8 °F - 75.2 °F 89% 29.86 in 3.7 mi ENE 6.9 mph - N/A   Mostly Cloudy
10:30 PM 78.8 °F - 75.2 °F 89% 29.86 in 3.7 mi NE 3.5 mph - N/A   Mostly Cloudy
11:00 PM 78.8 °F - 73.4 °F 83% 29.86 in 3.7 mi NE 6.9 mph - N/A   Mostly Cloudy
11:30 PM 77.0 °F - 73.4 °F 89% 29.86 in 3.7 mi NNE 3.5 mph - N/A   Mostly Cloudy